Time IST,SM1,SM2,SM3,TEMP,HUMD,PRSR,LMNS
2020-03-28 14:00:00,2650.19,2982.13,2835.613333,22.89,100.0,98909.46667000001,3372.0
2020-03-28 14:15:00,2673.858571,2963.604286,2834.021429,24.13142857,91.12571429,98909.50571,3419.142857
2020-03-28 14:30:00,2717.5233329999996,2961.506667,2835.5816670000004,25.36,85.42666667,98907.45,3400.166667
2020-03-28 14:45:00,2739.771667,2970.316667,2843.606667,24.99833333,81.75166667,98906.00667,3494.166667
2020-03-28 15:00:00,2784.7214289999997,2978.735714,2854.871429,27.07142857,74.15142857,98901.55714,4713.0
2020-03-28 15:15:00,2865.441667,2991.04,2873.623333,28.73666667,67.025,98895.59167000001,5195.166667
2020-03-28 15:30:00,2938.44,2997.015,2895.77,28.755,66.30333333,98890.66833,5365.166667
2020-03-28 15:45:00,2996.648571,2999.1614289999998,2906.97,29.74285714,61.98142857,98888.62286,4681.571429
2020-03-28 16:00:00,3036.606667,3012.04,2923.97,30.485,59.45833333,98880.24667000001,4938.5
2020-03-28 16:15:00,3081.07,2999.1614289999998,2941.17,30.99,56.16857143,98867.47286000001,5145.857143
2020-03-28 16:30:00,3112.06,3000.02,2949.87,31.31333333,54.33333333,98856.45167000001,5737.333333
2020-03-28 16:45:00,3141.458333,2994.01,2973.32,32.05,49.04166667,98841.25667,5686.166667
2020-03-28 17:00:00,3161.744286,2976.19,2976.247143,31.84,51.19857143,98830.76143,4451.285714
2020-03-28 17:15:00,3198.4033329999997,2982.13,3003.025,33.22333333,46.095,98812.84167000001,3214.0
2020-03-28 17:30:00,3218.9516670000003,2997.015,3012.04,33.315,45.59666667,98791.24833,3277.833333
2020-03-28 17:45:00,3228.87,2976.365714,3017.322857,31.48285714,49.14,98765.13571,2033.857143
2020-03-28 18:00:00,3122.1283329999997,2915.5366670000003,2979.16,27.27666667,56.82666667,98733.79667000001,1550.833333
2020-03-28 18:15:00,3033.565,2904.17,2991.04,26.35833333,59.475,98703.515,1549.666667
2020-03-28 18:30:00,2985.236667,2898.6016670000004,2976.19,26.17,59.22333333,98678.37667,1607.833333
2020-03-28 18:45:00,2936.284286,2902.17,2991.524286,26.13571429,60.25428571,98653.21286,1762.857143
2020-03-28 19:00:00,2912.636667,2898.57,3000.02,26.80666667,56.85166667,98627.295,2383.166667
2020-03-28 19:15:00,2909.836667,2904.17,3006.03,27.47833333,53.61166667,98595.565,2744.333333
2020-03-28 19:30:00,2951.204286,2909.455714,3006.921429,28.63714286,49.66857143,98562.66429,3258.714286
2020-03-28 19:45:00,2991.075,2935.4366670000004,3027.2933329999996,28.95833333,48.305,98535.96167,2725.666667
2020-03-28 20:00:00,2982.231667,2932.57,3027.2933329999996,28.33833333,48.77,98517.10832999999,2041.0
2020-03-28 20:15:00,2936.344286,2923.97,2999.1614289999998,27.36142857,52.53285714,98491.60857000001,1964.714286
2020-03-28 20:30:00,2904.17,2918.336667,3009.035,27.21333333,52.21,98470.60832999999,2041.6666670000002
2020-03-28 20:45:00,2865.35,2923.97,3021.17,26.77333333,53.885,98454.80667,2043.6666670000002
2020-03-28 21:00:00,2862.613333,2923.97,3024.251667,26.425,56.51666667,98434.165,1950.1666670000002
2020-03-28 21:15:00,2847.887143,2921.541429,3012.138571,26.21428571,57.64,98418.56143,1789.714286
2020-03-28 21:30:00,2824.85,2923.97,3024.251667,25.755,58.945,98396.92167000001,1509.0
2020-03-28 21:45:00,2819.59,2923.97,2997.015,25.59833333,60.49166667,98389.155,1356.166667
2020-03-28 22:00:00,2814.3,2923.97,3000.02,25.385,61.70333333,98385.11667,1138.833333
2020-03-28 22:15:00,2800.014286,2933.7985710000003,3001.737143,24.88714286,63.42142857,98381.77286,885.1428571
2020-03-28 22:30:00,2780.356667,2941.17,2997.015,24.60666667,65.895,98377.25833,658.5
2020-03-28 22:45:00,2772.656667,2941.17,2994.01,24.13666667,71.54333333,98375.82167,477.16666669999995
2020-03-28 23:00:00,2762.43,2941.17,2994.01,23.58833333,78.03833333,98373.30333,313.8333333
2020-03-28 23:15:00,2749.467143,2941.17,2996.5857140000003,23.08142857,85.81714286,98391.83857,153.5714286
2020-03-28 23:30:00,2742.2466670000003,2941.17,2994.01,22.655,89.77166667,98407.50332999999,67.0
2020-03-28 23:45:00,2737.27,2947.006667,2991.04,22.24833333,92.92166667,98420.09667,10.5
2020-03-29 00:00:00,2727.29,2961.506667,2991.04,21.755,99.68666667,98436.79333,0.5
2020-03-29 00:15:00,2715.314286,2966.121429,2978.735714,21.48571429,100.0,98458.88,0.0
2020-03-29 00:30:00,2712.493333,2964.4433329999997,2988.07,21.18,100.0,98471.15667000001,0.0
2020-03-29 00:45:00,2697.8833329999998,2961.506667,2985.1,20.96,100.0,98483.73667,0.0
2020-03-29 01:00:00,2688.195,2964.4433329999997,2985.1,20.77,100.0,98496.31167000001,0.0
2020-03-29 01:15:00,2680.98,2958.57,2979.1933329999997,20.87,100.0,98508.61833,0.0
2020-03-29 01:30:00,2677.921429,2958.57,2971.212857,20.73,100.0,98517.53286,0.28571428600000004
2020-03-29 01:45:00,2671.446667,2958.57,2970.316667,20.43666667,100.0,98543.055,0.0
2020-03-29 02:00:00,2664.31,2967.413333,2964.4433329999997,20.25333333,100.0,98546.10333,0.0
2020-03-29 02:15:00,2671.42,2976.19,2961.506667,20.08833333,100.0,98548.60832999999,0.0
2020-03-29 02:30:00,2666.68,2976.19,2958.57,20.00333333,100.0,98559.18333,0.0
2020-03-29 02:45:00,2650.19,2976.19,2970.316667,19.73833333,100.0,98562.83333,0.0
2020-03-29 03:00:00,2647.845,2979.16,2958.68,19.62666667,100.0,98558.46,0.0
2020-03-29 03:15:00,2645.56,2976.19,2941.17,19.64428571,100.0,98550.36142999999,0.0
2020-03-29 03:30:00,2631.57,2976.19,2941.17,19.65,100.0,98538.58,0.0
2020-03-29 03:45:00,2629.275,2976.19,2941.17,19.46833333,100.0,98540.75167,0.0
2020-03-29 04:00:00,2622.39,2979.16,2941.17,19.23333333,100.0,98538.375,0.0
2020-03-29 04:15:00,2617.8,2982.13,2941.17,18.87333333,100.0,98536.02,0.0
2020-03-29 04:30:00,2617.8,2982.13,2923.97,18.89,100.0,98519.64167000001,0.0
2020-03-29 04:45:00,2608.078571,2983.827143,2923.97,18.97857143,100.0,98513.70429,0.0
2020-03-29 05:00:00,2601.9116670000003,2979.16,2923.97,18.495,100.0,98514.305,0.0
2020-03-29 05:15:00,2599.663333,2985.1,2923.97,18.43333333,100.0,98491.75667,0.0
2020-03-29 05:30:00,2599.663333,2982.13,2923.97,18.39666667,100.0,98471.10167,0.0
2020-03-29 05:45:00,2601.9116670000003,2985.1,2923.97,18.28333333,100.0,98464.34332999999,0.0
2020-03-29 06:00:00,2581.763333,2994.045,2912.636667,18.22833333,100.0,98444.37333,0.0
2020-03-29 06:15:00,2583.99,2997.05,2906.97,18.17666667,100.0,98430.99167,0.0
2020-03-29 06:30:00,2586.216667,2994.045,2906.97,17.925,100.0,98416.21167,0.0
2020-03-29 06:45:00,2577.335,3000.02,2906.97,17.75833333,100.0,98413.85832999999,0.0
2020-03-29 07:00:00,2577.352857,3004.312857,2906.97,17.59285714,100.0,98395.2,0.0
2020-03-29 07:15:00,2570.705,3009.035,2906.97,17.37166667,100.0,98375.65167,0.0
2020-03-29 07:30:00,2568.5033329999997,3006.03,2901.37,17.31,100.0,98362.62667,0.0
2020-03-29 07:45:00,2570.705,3003.025,2890.2016670000003,17.32333333,100.0,98355.07667000001,0.0
2020-03-29 08:00:00,2568.5033329999997,3003.025,2884.6333329999998,17.28166667,100.0,98334.51,0.0
2020-03-29 08:15:00,2564.143333,3000.02,2881.865,17.12166667,100.0,98325.76167,0.0
2020-03-29 08:30:00,2555.38,3003.025,2881.865,17.07833333,100.0,98315.23332999999,0.0
2020-03-29 08:45:00,2555.38,2997.015,2884.6333329999998,17.11,100.0,98308.94,0.0
2020-03-29 09:00:00,2559.74,2997.015,2876.328333,17.12666667,100.0,98301.665,0.0
2020-03-29 09:15:00,2551.041667,3000.02,2873.591667,17.15666667,100.0,98296.43333,0.0
2020-03-29 09:30:00,2542.386667,2997.015,2865.35,17.11166667,100.0,98303.71,0.0
2020-03-29 09:45:00,2545.47,2999.1614289999998,2868.868571,17.07714286,100.0,98312.19286,0.0
2020-03-29 10:00:00,2540.25,3006.03,2868.086667,16.90333333,100.0,98322.02,0.0
2020-03-29 10:15:00,2535.9766670000004,2997.015,2865.35,16.79833333,100.0,98345.93167,0.0
2020-03-29 10:30:00,2540.228333,2997.015,2870.823333,16.66666667,100.0,98349.56,0.0
2020-03-29 10:45:00,2535.933333,2994.01,2854.433333,16.50166667,100.0,98351.32,0.0
2020-03-29 11:00:00,2531.66,2994.01,2849.02,16.40166667,100.0,98364.55,3.666666667
2020-03-29 11:15:00,2538.07,2994.01,2857.14,16.35833333,100.0,98376.67332999999,34.5
2020-03-29 11:30:00,2527.408333,2994.01,2854.433333,16.37166667,100.0,98390.82333,104.66666670000001
2020-03-29 11:45:00,2512.56,3003.025,2843.606667,16.445,100.0,98407.035,203.83333330000002
2020-03-29 12:00:00,2521.02,2994.01,2830.231667,16.61,100.0,98418.725,323.8333333
2020-03-29 12:15:00,2533.796667,2997.015,2835.55,17.12166667,100.0,98433.27833,456.33333330000005
2020-03-29 12:30:00,2529.5233329999996,2997.015,2830.2,17.665,100.0,98449.89332999999,583.6666667000001
2020-03-29 12:45:00,2531.66,2982.13,2835.55,18.71333333,100.0,98467.51832999999,1484.0
2020-03-29 13:00:00,2531.6816670000003,2991.04,2819.56,20.94333333,95.26,98484.71167,2166.833333
2020-03-29 13:15:00,2542.386667,2982.13,2814.27,20.83,94.725,98492.855,1606.5
2020-03-29 13:30:00,2553.2,2982.13,2819.56,20.75833333,96.72,98496.34667,1104.0
2020-03-29 13:45:00,2570.7266670000004,2979.16,2819.56,21.73833333,85.07,98507.75833,1594.0
2020-03-29 14:00:00,2584.015,2991.04,2811.625,23.53833333,73.02833333,98520.53,2382.833333
2020-03-29 14:15:00,2613.2533329999997,2985.1,2811.625,24.46166667,69.61,98526.06167000001,2580.0
2020-03-29 14:30:00,2629.275,2979.16,2816.915,24.84666667,67.48833333,98537.875,2119.5
2020-03-29 14:45:00,2671.04,2972.6659999999997,2815.328,26.471999999999998,59.641999999999996,98549.326,3195.4
2020-03-29 15:00:00,2722.473333,3000.055,2827.525,28.37333333,52.91,98561.04832999999,4925.833333
2020-03-29 15:15:00,2806.63,3015.083333,2862.643333,29.965,48.42333333,98568.455,5668.833333
2020-03-29 15:30:00,2893.13,3042.62,2879.1283329999997,30.63333333,45.51333333,98567.555,6018.5
2020-03-29 15:45:00,2970.4566670000004,3036.46,2898.6016670000004,31.33,43.525,98566.64,5657.0
2020-03-29 16:00:00,3018.24,3045.7,2915.47,31.52666667,39.69,98566.78332999999,5608.5
2020-03-29 16:15:00,3058.205,3042.62,2926.836667,32.54666667,38.13333333,98549.685,6410.666667
2020-03-29 16:30:00,3115.295,3033.38,2944.07,33.00833333,38.11666667,98543.94833,6409.833333
2020-03-29 16:45:00,3148.0083329999998,3027.2933329999996,2964.4433329999997,33.20333333,35.53666667,98533.94,6730.0
2020-03-29 17:00:00,3191.555,3015.083333,2976.223333,34.29,33.72,98524.035,7130.0
2020-03-29 17:15:00,3201.718333,3015.083333,2988.07,33.95166667,31.87,98504.11167,5599.333333
2020-03-29 17:30:00,3215.505,3024.251667,2994.01,34.40166667,32.42166667,98487.82667000001,3767.333333
2020-03-29 17:45:00,3205.251667,2985.1333329999998,3006.103333,32.65666667,33.75166667,98469.47833,2121.0
2020-03-29 18:00:00,3099.635,2926.87,2964.48,28.57333333,41.23666667,98450.31332999999,1741.5
2020-03-29 18:15:00,3006.1416670000003,2906.97,2955.67,27.78666667,44.47833333,98434.88,2082.166667
2020-03-29 18:30:00,2947.04,2901.37,2964.4433329999997,27.77333333,45.49333333,98420.18,2294.0
2020-03-29 18:45:00,2910.41,2903.61,2965.618,27.59,44.9,98402.38,2626.2
2020-03-29 19:00:00,2876.36,2906.97,2973.2866670000003,28.235,43.22833333,98378.59833,2430.0
2020-03-29 19:15:00,2873.623333,2912.636667,2985.1,28.82833333,43.20833333,98354.88167,3681.166667
2020-03-29 19:30:00,2909.836667,2926.836667,2997.015,30.10333333,41.12333333,98332.815,3930.5
2020-03-29 19:45:00,2958.68,2949.87,3009.035,30.425,38.26333333,98316.865,3643.5
2020-03-29 20:00:00,2955.7066670000004,2946.97,3012.155,29.44166667,40.80333333,98304.19333,2948.833333
2020-03-29 20:15:00,2904.268333,2923.97,2988.07,28.38333333,41.97333333,98292.90832999999,2799.666667
2020-03-29 20:30:00,2859.906667,2923.97,2982.13,27.905,42.20333333,98288.72667,2392.5
2020-03-29 20:45:00,2840.9,2923.97,2982.13,27.54666667,43.43833333,98283.025,2473.166667
2020-03-29 21:00:00,2824.922,2923.97,2986.882,27.296,45.048,98282.354,1943.8
2020-03-29 21:15:00,2803.78,2923.97,2982.13,26.78666667,47.39166667,98287.89667,1771.6666670000002
2020-03-29 21:30:00,2782.9716670000003,2923.97,2976.19,26.51833333,50.81333333,98298.47167,1595.666667
2020-03-29 21:45:00,2764.986667,2935.47,2982.13,26.26333333,51.785,98303.69167,1370.666667
2020-03-29 22:00:00,2749.808333,2941.17,2982.13,25.95666667,52.36333333,98312.13,1103.0
2020-03-29 22:15:00,2734.7416670000002,2941.17,2982.13,25.62333333,54.94,98301.545,867.0
2020-03-29 22:30:00,2719.8916670000003,2941.17,2991.04,25.28666667,57.74333333,98286.88333,646.8333332999999
2020-03-29 22:45:00,2708.6079999999997,2941.17,2976.27,24.926,59.52,98286.04199999999,482.0
2020-03-29 23:00:00,2693.038333,2941.17,2961.506667,24.46333333,63.025,98291.81667,335.6666667
2020-03-29 23:15:00,2673.816667,2952.8066670000003,2964.4433329999997,23.86,66.93666667,98294.87167000001,166.5
2020-03-29 23:30:00,2666.68,2967.38,2958.57,23.15666667,71.26666667,98307.29,63.66666667
2020-03-29 23:45:00,2665.288,2958.57,2958.57,22.785999999999998,72.25,98324.57800000001,12.2
2020-03-30 00:00:00,2652.558333,2958.57,2958.57,22.32833333,75.105,98342.33333,0.666666667
2020-03-30 00:15:00,2629.275,2958.57,2949.87,22.00833333,77.52833333,98354.45332999999,0.0
2020-03-30 00:30:00,2617.8,2961.506667,2941.17,21.69,81.68166667,98381.15832999999,0.0
2020-03-30 00:45:00,2601.9116670000003,2982.163333,2941.17,21.52833333,83.38666667,98403.24833,0.0
2020-03-30 01:00:00,2598.764,2983.3579999999997,2941.17,21.35,86.484,98421.866,0.0
2020-03-30 01:15:00,2590.67,2988.07,2938.303333,21.17833333,87.52833333,98436.11333,0.0
2020-03-30 01:30:00,2588.4433329999997,2991.04,2923.97,20.87166667,90.14333333,98450.06167000001,0.0
2020-03-30 01:45:00,2572.9316670000003,2988.07,2923.97,20.62166667,93.11833333,98464.0,0.0
2020-03-30 02:00:00,2577.31,2976.19,2923.97,20.49333333,93.395,98470.13333,0.0
2020-03-30 02:15:00,2556.252,2986.882,2923.97,20.336,94.866,98488.42199999999,0.0
2020-03-30 02:30:00,2559.74,2976.19,2912.67,20.28,95.81,98492.82,0.0
2020-03-30 02:45:00,2548.861667,2979.16,2904.17,20.17833333,97.25166667,98500.07667000001,0.0
2020-03-30 03:00:00,2542.386667,2985.1,2904.17,19.84333333,99.90333333,98508.96667000001,0.0
2020-03-30 03:15:00,2531.66,2991.075,2904.17,19.51666667,100.0,98517.255,0.0
2020-03-30 03:30:00,2530.3779999999997,3001.222,2896.89,19.248,100.0,98529.93199999999,0.0
2020-03-30 03:45:00,2529.5233329999996,3000.02,2884.6333329999998,19.03166667,100.0,98534.22,0.0
2020-03-30 04:00:00,2525.25,3000.02,2884.6333329999998,18.88666667,100.0,98521.285,0.0
2020-03-30 04:15:00,2522.712,2997.616,2886.848,18.868,100.0,98519.65199999999,0.0
2020-03-30 04:30:00,2514.675,2997.015,2884.6333329999998,18.81166667,100.0,98508.69667,0.0
2020-03-30 04:45:00,2504.208333,3000.02,2873.56,18.63333333,100.0,98496.54,0.0
2020-03-30 05:00:00,2500.0,2994.01,2873.56,18.395,100.0,98491.38667,0.0
2020-03-30 05:15:00,2500.0,2994.01,2866.992,18.305999999999997,100.0,98482.51400000001,0.0
2020-03-30 05:30:00,2493.78,2997.015,2868.086667,18.29166667,100.0,98468.19,0.0
2020-03-30 05:45:00,2487.56,3009.035,2873.56,18.20166667,100.0,98447.42167000001,0.0
2020-03-30 06:00:00,2487.56,3003.025,2857.2,17.95833333,100.0,98436.14,0.0
2020-03-30 06:15:00,2487.56,3001.222,2844.1479999999997,17.746,100.0,98438.24,0.0
2020-03-30 06:30:00,2473.208333,3003.025,2846.3133329999996,17.68333333,100.0,98421.395,0.0
2020-03-30 06:45:00,2473.208333,3003.025,2854.433333,17.53833333,100.0,98398.04333,0.0
2020-03-30 07:00:00,2467.1333329999998,3003.025,2851.7266670000004,17.35166667,100.0,98375.62333,0.0
2020-03-30 07:15:00,2463.05,3012.04,2840.9,17.23,100.0,98365.44,0.0
2020-03-30 07:30:00,2459.026667,3009.073333,2830.2,16.975,100.0,98348.955,0.0
2020-03-30 07:45:00,2450.98,3001.222,2828.06,16.834,100.0,98337.866,0.0
2020-03-30 08:00:00,2445.0,3009.073333,2824.85,16.71666667,100.0,98332.40832999999,0.0
2020-03-30 08:15:00,2441.033333,3015.1216670000003,2824.88,16.67666667,100.0,98323.71,0.0
2020-03-30 08:30:00,2431.916,3022.9959999999996,2812.1540000000005,16.608,100.0,98322.886,0.0
2020-03-30 08:45:00,2427.198333,3018.165,2808.98,16.45,100.0,98323.41167,0.0
2020-03-30 09:00:00,2421.315,3018.126667,2808.98,16.34833333,100.0,98323.77,0.0
2020-03-30 09:15:00,2427.18,3008.434,2808.98,16.31,100.0,98325.78199999999,0.0
2020-03-30 09:30:00,2423.27,3009.073333,2795.905,16.22666667,100.0,98327.11833,0.0
2020-03-30 09:45:00,2413.535,3021.17,2798.52,16.14,100.0,98326.57167,0.0
2020-03-30 10:00:00,2410.806,3004.8740000000003,2802.704,16.05,100.0,98323.162,0.0
2020-03-30 10:15:00,2411.58,3009.073333,2801.135,15.91,100.0,98333.51667000001,0.0
2020-03-30 10:30:00,2409.645,3012.1166670000002,2785.558333,15.765,100.0,98337.345,0.0
2020-03-30 10:45:00,2406.1839999999997,3019.39,2777.77,15.692,100.0,98341.45,0.0
2020-03-30 11:00:00,2407.71,3024.2133329999997,2777.77,15.63166667,100.0,98352.225,4.333333333
2020-03-30 11:15:00,2401.941667,3024.2133329999997,2777.77,15.61166667,100.0,98363.51,41.83333333
2020-03-30 11:30:00,2401.54,3015.692,2777.77,15.668,100.0,98373.326,133.6
2020-03-30 11:45:00,2396.1733329999997,3024.2133329999997,2764.986667,15.79,100.0,98378.50833,243.66666669999998
2020-03-30 12:00:00,2407.71,3015.16,2762.43,16.11,100.0,98380.11167,405.1666667
2020-03-30 12:15:00,2410.806,2994.01,2759.3940000000002,16.538,100.0,98396.054,572.2
2020-03-30 12:30:00,2405.775,3000.02,2744.748333,17.12666667,100.0,98416.55167,776.0
2020-03-30 12:45:00,2413.152,3001.222,2747.25,18.712,99.65,98424.136,1590.8
2020-03-30 13:00:00,2423.27,3000.02,2747.25,19.79666667,96.46,98432.67833,1338.0
2020-03-30 13:15:00,2429.57,2997.616,2741.2459999999996,20.18,96.0,98447.224,1778.8
2020-03-30 13:30:00,2437.066667,2994.01,2724.815,20.47,96.095,98448.27833,1378.166667
2020-03-30 13:45:00,2455.0033329999997,2991.04,2719.865,21.47,90.15833333,98467.45667,1686.0
2020-03-30 14:00:00,2465.536,2997.616,2732.24,23.336,72.574,98484.306,2440.4
2020-03-30 14:15:00,2481.421667,2985.1,2727.29,24.19,68.92333333,98498.56,2395.166667
2020-03-30 14:30:00,2507.562,2976.19,2732.24,24.811999999999998,65.832,98515.418,3189.6
2020-03-30 14:45:00,2538.113333,2979.16,2729.765,25.77666667,62.09,98525.23833,3096.333333
2020-03-30 15:00:00,2568.5033329999997,2976.19,2742.2466670000003,26.19666667,58.22166667,98537.66833,3805.333333
2020-03-30 15:15:00,2593.45,2994.01,2741.2459999999996,27.266,55.73,98559.132,4799.6
2020-03-30 15:30:00,2686.11,3024.251667,2772.656667,30.56166667,46.45,98558.835,5683.666667
2020-03-30 15:45:00,2784.116,3030.344,2805.8779999999997,31.881999999999998,43.083999999999996,98568.57,3809.6
2020-03-30 16:00:00,2752.365,2997.0883329999997,2780.356667,28.82166667,48.70666667,98559.57333,4001.833333
2020-03-30 16:15:00,2738.244,2986.882,2774.702,28.622,48.38399999999999,98551.72,4454.2
2020-03-30 16:30:00,2775.501667,2991.075,2798.606667,30.70666667,43.30166667,98549.14667,6694.833333
2020-03-30 16:45:00,2827.6166670000002,2997.015,2819.56,31.35166667,41.44333333,98545.88167,5450.833333
2020-03-30 17:00:00,2893.065,3024.2133329999997,2846.3133329999996,32.23333333,36.69666667,98543.255,6972.833333
2020-03-30 17:15:00,2927.53,3019.344,2866.992,33.156,35.496,98526.20599999999,6266.8
2020-03-30 17:30:00,2985.1683329999996,3045.7,2893.001667,33.96,35.02,98501.24,5710.0
2020-03-30 17:45:00,3024.2866670000003,3033.416667,2904.17,32.76833333,35.64333333,98488.11333,3113.5
2020-03-30 18:00:00,2927.375,2955.7066670000004,2857.2,28.76333333,43.80666667,98473.18,1836.8333329999998
2020-03-30 18:15:00,2825.032,2930.85,2847.3959999999997,28.03,41.51,98460.694,1786.6
2020-03-30 18:30:00,2775.328333,2918.303333,2843.606667,27.68666667,42.77166667,98438.985,1813.1666670000002
2020-03-30 18:45:00,2735.2740000000003,2920.57,2844.1479999999997,27.622,41.832,98428.73800000001,1945.4
2020-03-30 19:00:00,2714.941667,2923.97,2859.906667,28.34166667,40.27166667,98412.71832999999,2478.166667
2020-03-30 19:15:00,2726.364,2934.29,2866.992,29.734,36.074,98395.646,2855.6
2020-03-30 19:30:00,2759.981667,2944.07,2868.118333,30.41,36.41166667,98377.26,2937.166667
2020-03-30 19:45:00,2777.77,2958.57,2880.204,30.07,36.924,98363.414,2497.4
2020-03-30 20:00:00,2759.926667,2944.07,2887.401667,28.88666667,39.16166667,98347.55333,2207.833333
2020-03-30 20:15:00,2735.242,2941.17,2886.848,28.541999999999998,41.284,98335.62800000001,2281.0
2020-03-30 20:30:00,2712.493333,2941.17,2876.36,28.32333333,43.61166667,98325.065,2018.3333329999998
2020-03-30 20:45:00,2685.823333,2941.17,2881.865,27.98333333,42.62333333,98316.93333,2014.8333329999998
2020-03-30 21:00:00,2673.822,2941.17,2883.526,27.714000000000002,43.174,98298.15800000001,1689.6
2020-03-30 21:15:00,2662.414,2941.17,2870.276,27.498,43.788000000000004,98285.12199999999,1726.2
2020-03-30 21:30:00,2652.535,2941.17,2865.35,27.21833333,47.62333333,98270.57333,1432.333333
2020-03-30 21:45:00,2631.57,2941.17,2863.708,27.034000000000002,48.512,98265.936,1209.2
2020-03-30 22:00:00,2615.526667,2941.17,2862.613333,26.72833333,50.26166667,98259.47833,1069.833333
2020-03-30 22:15:00,2601.462,2941.17,2860.4240000000004,26.276,53.556000000000004,98258.32400000001,825.6
2020-03-30 22:30:00,2588.4433329999997,2949.906667,2865.35,25.805,51.02,98256.90832999999,662.8333332999999
2020-03-30 22:45:00,2572.026,2965.618,2866.992,25.384,51.748000000000005,98258.18,493.0
2020-03-30 23:00:00,2557.56,2961.506667,2859.906667,24.98666667,56.62166667,98268.54832999999,344.8333333
2020-03-30 23:15:00,2545.84,2958.57,2860.4240000000004,24.504,59.15,98289.936,212.8
2020-03-30 23:30:00,2533.796667,2961.506667,2854.433333,23.98166667,61.93166667,98299.82333,86.0
2020-03-30 23:45:00,2522.738,2958.57,2850.6440000000002,23.552,61.05,98315.632,15.6
2020-03-31 00:00:00,2508.416667,2958.57,2843.606667,23.03666667,64.37333333,98316.28167000001,0.666666667
2020-03-31 00:15:00,2495.024,2972.6659999999997,2847.3959999999997,22.564,65.524,98313.242,0.0
2020-03-31 00:30:00,2485.506667,2985.1333329999998,2835.5816670000004,22.13166667,69.43666667,98320.38833,0.166666667
2020-03-31 00:45:00,5811.306,3844.532,5401.988,22.08,70.472,98338.81199999999,5.0
2020-03-31 01:00:00,6579.852,6890.02,7142.85,21.862,72.264,98358.612,5.0
2020-03-31 01:15:00,6550.84,6741.735,7142.85,21.38333333,74.86,98358.56,5.0
2020-03-31 01:30:00,6562.308000000001,6614.028,7142.85,20.998,76.392,98369.052,5.0
2020-03-31 01:45:00,6637.42,6608.94,7142.85,20.71,76.21333333,98385.87,0.0
2020-03-31 02:00:00,6596.94,6493.5,7142.85,20.462,78.18,98400.884,0.0
2020-03-31 02:15:00,6550.46,6521.98,7142.85,20.22666667,78.675,98411.61333,0.0
2020-03-31 02:30:00,6477.2880000000005,6493.938,7142.85,20.04,82.13,98423.89199999999,0.0
2020-03-31 02:45:00,6493.5,6510.588000000001,7142.85,19.838,84.54799999999999,98421.192,0.0
2020-03-31 03:00:00,6451.875,6521.98,7142.85,19.58666667,88.24333333,98424.86333,0.0
2020-03-31 03:15:00,6493.5,6493.5,7142.85,19.474,90.696,98421.12199999999,0.0
2020-03-31 03:30:00,6451.875,6507.74,7142.85,19.26333333,95.175,98417.79167,0.0
2020-03-31 03:45:00,6476.85,6493.5,7142.85,19.032,97.28,98424.48,0.0
2020-03-31 04:00:00,6451.875,6507.74,7142.85,18.83,100.0,98419.13833,0.0
2020-03-31 04:15:00,6544.764,6614.028,7142.85,18.706,99.734,98413.972,0.0
2020-03-31 04:30:00,6528.1140000000005,6596.484,7142.85,18.392,100.0,98400.214,0.0
2020-03-31 04:45:00,6451.875,6622.8,7142.85,18.25666667,100.0,98391.78,0.0
2020-03-31 05:00:00,6460.2,6614.028,7122.73,18.332,100.0,98391.48599999999,0.0
2020-03-31 05:15:00,6397.0783329999995,6608.18,7025.948333,18.43166667,100.0,98394.52167,0.0
2020-03-31 05:30:00,6377.794,6632.045999999999,7022.688,18.387999999999998,100.0,98379.38,0.0
2020-03-31 05:45:00,6410.25,6666.66,7042.25,18.2,100.0,98363.06,0.0
2020-03-31 06:00:00,6088.326667,6682.07,7042.25,17.98666667,100.0,98335.84332999999,0.0
2020-03-31 06:15:00,6297.871999999999,6684.678000000001,7042.25,17.878,100.0,98320.78199999999,0.0
2020-03-31 06:30:00,6383.541667,6666.66,7042.25,17.84833333,100.0,98314.06167000001,0.0
2020-03-31 06:45:00,6377.794,6775.755999999999,7042.25,17.668,100.0,98303.898,0.0
2020-03-31 07:00:00,6297.465999999999,6794.268,7042.25,17.554000000000002,100.0,98302.494,0.0
2020-03-31 07:15:00,6237.138333,6803.03,7042.25,17.43333333,100.0,98302.7,0.0